Puyallup, WA

11:44 PM PDT on September 19, 2017 (GMT -0700)
Pierce County - Thun Field

Weather History for KPLU - August, 2013

Change the Weather History Date:

Saturday, August 31, 2013

  Actual Average (KTCM) Record (KTCM)
Temperature  
Mean Temperature 65 °F -  
Max Temperature 80 °F 72 °F 91 °F (1987)
Min Temperature 50 °F 49 °F 41 °F (2006)
Growing Degree Days 15 (Base 50)    
Moisture  
Dew Point 56 °F    
Average Humidity 78    
Maximum Humidity 100    
Minimum Humidity 42    
Precipitation  
Precipitation 0.00 in - - ()
Sea Level Pressure  
Sea Level Pressure 29.98 in    
Wind  
Wind Speed 0 mph (North)    
Max Wind Speed 6 mph    
Max Gust Speed -    
Visibility 9 miles    
Events      
Averages and records for this station are not official NWS values.
T = Trace of Precipitation, MM = Missing Value Source: NWS Daily Summary

Daily Weather History Graph

Daily Weather History Graph

Search for Another Location

Airport or City:

Trip Planner

Search our weather history database for the weather conditions in past years. The results will help you decide how hot, cold, wet, or windy it might be!

Date:

Astronomy

Aug. 31, 2013 Rise Set
Actual Time 6:27 AM PDT 7:50 PM PDT
Civil Twilight 5:55 AM PDT 8:21 PM PDT
Nautical Twilight 5:17 AM PDT 8:59 PM PDT
Astronomical Twilight 4:36 AM PDT 9:40 PM PDT
Moon 1:50 AM PDT (8/31) 5:02 PM PDT (8/31)
Length of Visible Light 14h 25m
Length of Day
13h 22m
Waning Crescent, 20% of the Moon is Illuminated
Aug 31
Waning Crescent
Sep 5
New
Sep 12
First Quarter
Sep 19
Full
Sep 26
Last Quarter

Hourly Weather History & Observations

Time (PDT) Temp. Heat Index Dew Point Humidity Pressure Visibility Wind Dir Wind Speed Gust Speed Precip Events Conditions
12:15 AM 55.4 °F - 55.4 °F 100% 30.10 in 10.0 mi Calm Calm - N/A   Mostly Cloudy
12:35 AM 53.6 °F - 53.6 °F 100% 30.10 in 10.0 mi Calm Calm - N/A   Overcast
12:55 AM 53.6 °F - 53.6 °F 100% 30.10 in 10.0 mi Calm Calm - N/A   Mostly Cloudy
1:15 AM 55.4 °F - 55.4 °F 100% 30.10 in 10.0 mi Calm Calm - N/A   Mostly Cloudy
1:35 AM 55.4 °F - 55.4 °F 100% 30.10 in 10.0 mi Calm Calm - N/A   Mostly Cloudy
1:55 AM 53.6 °F - 53.6 °F 100% 30.09 in 10.0 mi Calm Calm - N/A   Overcast
2:15 AM 53.6 °F - 53.6 °F 100% 30.09 in 10.0 mi Calm Calm - N/A   Mostly Cloudy
2:35 AM 51.8 °F - 51.8 °F 100% 30.08 in 7.0 mi Calm Calm - N/A   Scattered Clouds
2:55 AM 51.8 °F - 51.8 °F 100% 30.08 in 8.0 mi Calm Calm - N/A   Clear
3:15 AM 51.8 °F - 51.8 °F 100% 30.08 in 1.0 mi Calm Calm - N/A   Mostly Cloudy
3:35 AM 50.0 °F - 50.0 °F 100% 30.07 in 3.0 mi Calm Calm - N/A   Mostly Cloudy
3:55 AM 51.8 °F - 51.8 °F 100% 30.07 in 2.0 mi Calm Calm - N/A   Scattered Clouds
4:15 AM 53.6 °F - 53.6 °F 100% 30.07 in 8.0 mi Calm Calm - N/A   Mostly Cloudy
4:35 AM 51.8 °F - 51.8 °F 100% 30.07 in 10.0 mi Calm Calm - N/A   Mostly Cloudy
4:55 AM 51.8 °F - 51.8 °F 100% 30.06 in 8.0 mi Calm Calm - N/A   Partly Cloudy
5:15 AM 50.0 °F - 50.0 °F 100% 30.06 in 1.8 mi Calm Calm - N/A   Scattered Clouds
5:35 AM 50.0 °F - 50.0 °F 100% 30.06 in 0.8 mi Calm Calm - N/A   Mostly Cloudy
5:55 AM 50.0 °F - 50.0 °F 100% 30.06 in 7.0 mi Calm Calm - N/A   Partly Cloudy
6:15 AM 50.0 °F - 50.0 °F 100% 30.06 in 2.0 mi Calm Calm - N/A   Scattered Clouds
6:35 AM 50.0 °F - 50.0 °F 100% 30.06 in 0.8 mi Calm Calm - N/A   Mostly Cloudy
6:55 AM 50.0 °F - 50.0 °F 100% 30.06 in 5.0 mi Calm Calm - N/A   Mostly Cloudy
7:15 AM 50.0 °F - 50.0 °F 100% 30.05 in 9.0 mi Calm Calm - N/A   Mostly Cloudy
7:35 AM 50.0 °F - 50.0 °F 100% 30.05 in 5.0 mi Calm Calm - N/A   Partly Cloudy
7:55 AM 53.6 °F - 53.6 °F 100% 30.05 in 10.0 mi Calm Calm - N/A   Partly Cloudy
8:15 AM 57.2 °F - 57.2 °F 100% 30.05 in 10.0 mi Calm Calm - N/A   Clear
8:35 AM 59.0 °F - 57.2 °F 94% 30.05 in 10.0 mi Calm Calm - N/A   Partly Cloudy
8:55 AM 60.8 °F - 57.2 °F 88% 30.04 in 10.0 mi Calm Calm - N/A   Partly Cloudy
9:15 AM 64.4 °F - 57.2 °F 77% 30.03 in 10.0 mi Calm Calm - N/A   Partly Cloudy
9:35 AM 66.2 °F - 57.2 °F 73% 30.03 in 10.0 mi Calm Calm - N/A   Scattered Clouds
9:55 AM 66.2 °F - 57.2 °F 73% 30.03 in 10.0 mi Calm Calm - N/A   Mostly Cloudy
10:15 AM 68.0 °F - 57.2 °F 68% 30.02 in 10.0 mi Calm Calm - N/A   Scattered Clouds
10:35 AM 68.0 °F - 57.2 °F 68% 30.01 in 10.0 mi Calm Calm - N/A   Scattered Clouds
10:55 AM 69.8 °F - 57.2 °F 64% 30.01 in 10.0 mi Calm Calm - N/A   Mostly Cloudy
11:15 AM 69.8 °F - 57.2 °F 64% 30.00 in 10.0 mi Calm Calm - N/A   Mostly Cloudy
11:35 AM 71.6 °F - 57.2 °F 60% 29.99 in 10.0 mi Calm Calm - N/A   Scattered Clouds
11:55 AM 71.6 °F - 57.2 °F 60% 29.99 in 10.0 mi Calm Calm - N/A   Scattered Clouds
12:15 PM 73.4 °F - 57.2 °F 57% 29.98 in 10.0 mi Calm Calm - N/A   Scattered Clouds
12:35 PM 73.4 °F - 59.0 °F 61% 29.97 in 10.0 mi Calm Calm - N/A   Scattered Clouds
12:55 PM 75.2 °F - 59.0 °F 57% 29.97 in 10.0 mi North 4.6 mph - N/A   Scattered Clouds
1:15 PM 75.2 °F - 59.0 °F 57% 29.96 in 10.0 mi Calm Calm - N/A   Mostly Cloudy
1:35 PM 75.2 °F - 59.0 °F 57% 29.95 in 10.0 mi Calm Calm - N/A   Mostly Cloudy
1:55 PM 77.0 °F - 59.0 °F 54% 29.95 in 10.0 mi Calm Calm - N/A   Mostly Cloudy
2:15 PM 77.0 °F - 59.0 °F 54% 29.94 in 10.0 mi Calm Calm - N/A   Partly Cloudy
2:35 PM 77.0 °F - 57.2 °F 50% 29.94 in 10.0 mi Calm Calm - N/A   Scattered Clouds
2:55 PM 77.0 °F - 57.2 °F 50% 29.93 in 10.0 mi Calm Calm - N/A   Mostly Cloudy
3:15 PM 77.0 °F - 57.2 °F 50% 29.93 in 10.0 mi Calm Calm - N/A   Mostly Cloudy
3:35 PM 77.0 °F - 57.2 °F 50% 29.92 in 10.0 mi NNW 5.8 mph - N/A   Mostly Cloudy
3:55 PM 78.8 °F - 57.2 °F 47% 29.92 in 10.0 mi Calm Calm - N/A   Mostly Cloudy
4:15 PM 78.8 °F - 57.2 °F 47% 29.91 in 10.0 mi Calm Calm - N/A   Overcast
4:35 PM 78.8 °F - 57.2 °F 47% 29.90 in 10.0 mi Calm Calm - N/A   Overcast
4:55 PM 80.6 °F 80.5 °F 55.4 °F 42% 29.90 in 10.0 mi NNE 3.5 mph - N/A   Scattered Clouds
5:15 PM 78.8 °F - 55.4 °F 44% 29.89 in 10.0 mi Calm Calm - N/A   Partly Cloudy
5:35 PM 80.6 °F 80.5 °F 55.4 °F 42% 29.89 in 10.0 mi Calm Calm - N/A   Partly Cloudy
5:55 PM 78.8 °F - 57.2 °F 47% 29.88 in 9.0 mi Calm Calm - N/A   Scattered Clouds
6:15 PM 78.8 °F - 57.2 °F 47% 29.88 in 10.0 mi Calm Calm - N/A   Mostly Cloudy
6:35 PM 78.8 °F - 57.2 °F 47% 29.88 in 10.0 mi Calm Calm - N/A   Overcast
6:55 PM 77.0 °F - 57.2 °F 50% 29.88 in 10.0 mi Calm Calm - N/A   Overcast
7:15 PM 75.2 °F - 59.0 °F 57% 29.87 in 10.0 mi Calm Calm - N/A   Overcast
7:35 PM 73.4 °F - 59.0 °F 61% 29.87 in 10.0 mi Calm Calm - N/A   Mostly Cloudy
7:55 PM 69.8 °F - 60.8 °F 73% 29.87 in 10.0 mi Calm Calm - N/A   Overcast
8:15 PM 66.2 °F - 60.8 °F 83% 29.87 in 10.0 mi Calm Calm - N/A   Overcast
8:35 PM 66.2 °F - 60.8 °F 83% 29.87 in 10.0 mi Calm Calm - N/A   Overcast
8:55 PM 66.2 °F - 60.8 °F 83% 29.87 in 10.0 mi Calm Calm - N/A   Overcast
9:15 PM 64.4 °F - 60.8 °F 88% 29.87 in 10.0 mi Calm Calm - N/A   Mostly Cloudy
9:35 PM 64.4 °F - 59.0 °F 83% 29.88 in 10.0 mi Calm Calm - N/A   Overcast
9:55 PM 64.4 °F - 57.2 °F 77% 29.87 in 10.0 mi Calm Calm - N/A   Overcast
10:15 PM 64.4 °F - 57.2 °F 77% 29.87 in 10.0 mi Calm Calm - N/A   Overcast
10:35 PM 62.6 °F - 57.2 °F 82% 29.87 in 10.0 mi Calm Calm - N/A   Overcast
10:55 PM 60.8 °F - 59.0 °F 94% 29.87 in 10.0 mi Calm Calm - N/A   Overcast
11:15 PM 59.0 °F - 59.0 °F 100% 29.86 in 10.0 mi Calm Calm - N/A   Overcast
11:35 PM 59.0 °F - 59.0 °F 100% 29.87 in 10.0 mi Calm Calm - N/A   Overcast
11:55 PM 59.0 °F - 59.0 °F 100% 29.87 in 10.0 mi Calm Calm - N/A   Overcast